Wind_Speed
9 7 6 5 4 5 5 5 4 4 4 4 4 5 6 7 8 10 10 11 12 13 14 15 16 17 18 19 20 21 22 23 24 23 22 21 20 19 18 17 17 16
13 11 9 7 6 7 7 7 6 5 5 5 5 5 5 6 6 7 8 9 9 10 11 12 13 14 15 16 18 19 20 21 22 22 22 21 20 19 17 16 16 15
17 15 13 10 10 10 10 9 8 8 8 7 6 5 5 5 5 6 6 6 7 8 9 10 10 11 12 14 15 16 17 18 19 20 20 20 20 19 18 16 15 14
21 19 17 15 14 13 12 12 11 10 10 9 8 7 6 5 4 4 4 5 5 5 6 7 8 8 9 11 12 13 15 16 17 17 18 18 18 17 17 16 15 14
25 23 21 20 17 15 14 14 13 13 12 11 10 9 7 6 4 3 3 3 2 2 3 4 5 6 7 8 9 11 12 13 14 15 15 16 16 16 15 14 14 13
28 27 25 23 21 18 16 16 17 16 15 13 12 11 9 8 6 4 3 2 1 1 1 2 3 4 5 6 7 9 10 11 12 12 13 13 14 14 13 13 12 12
29 29 27 26 23 20 18 19 19 18 16 15 14 13 11 10 8 6 5 4 3 2 2 2 2 3 4 5 6 8 9 10 10 11 11 11 12 12 12 11 11 10
28 29 28 27 25 22 21 20 21 20 18 17 16 15 14 12 10 9 7 6 5 4 4 4 4 4 4 5 6 7 8 9 10 10 10 11 11 11 10 10 9 9
27 28 28 27 26 24 23 22 22 21 20 19 17 17 15 14 13 11 10 9 8 7 7 6 6 6 6 6 6 7 8 9 9 10 11 11 11 10 10 9 8 8
26 27 28 27 26 25 24 23 23 22 21 20 19 18 17 15 14 14 12 12 11 10 10 9 8 8 8 8 7 8 8 9 9 10 11 11 11 11 10 9 8 7
24 25 26 26 26 26 25 25 24 23 22 22 21 20 19 17 16 15 15 14 14 13 13 12 11 11 11 10 10 10 10 10 10 10 10 10 10 10 10 9 8 7
24 25 25 25 25 25 25 25 25 24 23 23 22 21 21 20 18 17 17 16 16 16 15 14 14 13 13 13 13 12 12 12 12 11 11 10 9 9 9 8 8 7
25 25 24 23 23 24 25 26 26 25 24 24 23 23 22 21 20 19 18 18 18 18 17 17 16 16 16 15 15 14 14 14 14 13 12 10 9 8 8 8 7 6
26 25 23 23 23 23 25 26 26 26 25 25 25 24 23 22 21 20 20 20 20 19 19 19 18 18 18 17 17 16 16 15 15 13 12 11 9 8 8 7 7 7
26 25 24 23 23 23 25 25 25 26 26 26 26 25 24 24 23 22 22 21 21 21 21 20 20 19 19 19 18 17 16 16 14 13 12 11 10 9 8 8 8 8
26 25 25 24 25 25 25 25 25 25 26 26 26 26 25 25 24 23 23 22 22 22 22 22 21 20 20 19 19 18 17 15 14 13 12 11 10 10 10 9 9 9
27 26 26 26 26 26 26 26 26 26 26 27 27 26 26 25 24 23 23 22 22 22 22 22 21 19 19 19 18 17 16 15 14 13 12 12 11 11 11 10 10 10
29 28 28 28 27 27 27 27 27 27 27 27 26 26 25 24 23 22 21 21 22 22 22 21 18 17 18 18 17 16 15 14 14 13 13 12 12 11 11 10 9 9
32 31 30 29 28 28 28 27 27 27 27 26 25 24 24 23 23 22 20 20 20 21 20 19 17 17 17 18 17 16 16 15 15 14 13 12 11 10 9 9 8 8
36 34 32 31 30 28 28 28 28 28 27 26 24 24 23 22 21 20 19 19 20 20 19 19 18 18 18 19 18 17 16 16 15 14 13 11 10 9 8 8 7 7
40 38 35 33 32 30 29 29 29 29 27 25 24 23 22 21 20 20 19 19 19 19 19 19 19 19 19 19 19 17 16 16 15 13 11 10 10 9 8 8 7 7
44 41 38 36 34 32 31 30 29 28 26 24 23 22 22 21 20 19 18 17 17 18 18 18 17 17 19 19 18 16 16 15 13 11 9 9 10 9 9 8 8 7
47 44 41 38 36 34 33 31 29 26 24 22 22 22 21 20 19 19 18 17 17 17 17 16 14 15 17 18 17 16 16 15 12 10 10 10 10 10 10 10 9 8
50 47 44 40 38 36 34 31 28 26 23 22 21 21 20 20 19 19 20 19 19 18 18 16 14 14 16 17 17 17 17 16 13 12 11 11 11 11 12 11 10 9
51 50 47 44 40 38 34 30 27 24 23 22 22 21 21 20 20 21 21 21 21 20 20 18 16 16 16 16 17 18 19 17 15 14 12 11 11 12 13 12 12 11
54 52 50 47 43 40 36 31 27 25 23 22 22 23 23 23 22 23 23 23 22 22 22 21 19 18 18 18 18 19 20 19 17 16 13 11 11 13 14 14 12 11
Wind_Direction
234 236 241 250 242 219 206 200 190 176 168 160 149 139 132 122 112 103 96 89 83 78 74 71 68 65 62 59 58 58 58 58 57 57 57 57 58 59 61 64 67 69
241 244 248 254 248 234 224 218 210 205 202 195 180 163 149 136 122 111 102 93 86 81 76 71 67 63 61 57 55 55 55 55 56 55 55 55 56 56 57 59 62 65
245 251 253 249 243 239 236 229 220 218 221 219 210 195 178 159 139 124 112 101 91 83 78 73 67 61 57 54 52 51 51 51 52 52 52 54 55 55 55 55 57 60
247 251 252 248 245 245 244 238 228 225 228 229 229 221 210 192 169 147 130 116 103 89 80 74 67 59 52 49 46 45 45 46 47 47 48 49 51 53 54 54 55 57
247 249 251 250 249 247 244 241 234 230 230 232 234 234 229 220 206 188 169 148 125 100 78 69 65 55 45 39 36 36 37 38 40 41 42 43 46 48 51 53 54 55
246 247 250 252 252 249 244 239 236 235 232 232 234 237 236 233 227 221 216 211 199 181 27 33 41 38 30 23 22 23 24 27 30 32 34 35 38 40 44 48 51 53
247 247 248 250 250 248 243 238 237 238 236 235 237 238 238 239 238 235 234 239 244 256 284 313 338 354 1 1 2 5 9 12 13 17 21 24 27 30 35 39 44 48
250 249 248 248 248 245 240 236 235 237 237 237 239 240 241 244 245 244 244 246 250 255 268 283 298 314 329 338 342 346 352 356 358 1 4 8 12 16 22 28 34 40
250 249 248 247 246 244 240 236 233 233 235 237 239 241 243 246 248 250 252 253 255 257 262 270 278 290 301 311 320 326 334 341 344 346 350 353 357 0 5 11 18 27
248 247 246 245 244 242 240 237 234 232 232 235 237 240 243 245 249 252 255 257 259 260 263 267 272 280 286 292 300 308 316 323 327 331 336 341 344 347 350 354 360 8
244 245 245 244 243 242 240 238 236 234 232 233 235 237 239 242 244 248 251 256 259 261 264 267 272 276 281 285 290 296 301 306 310 315 321 328 332 335 337 340 345 351
237 239 241 242 243 243 241 239 239 237 235 235 236 236 238 240 241 244 248 252 256 260 263 266 270 275 280 284 287 290 293 296 299 303 308 313 318 322 325 328 332 337
232 232 233 236 240 242 243 242 242 240 237 236 237 238 239 241 242 244 248 252 255 259 262 266 270 274 278 282 284 286 289 290 292 295 297 300 304 308 311 314 316 319
230 229 227 227 231 236 240 242 242 242 241 239 239 239 240 242 243 245 247 251 255 258 262 266 269 272 275 278 280 281 283 285 286 287 289 290 291 292 295 297 298 300
225 228 226 222 222 226 232 237 239 241 242 242 242 242 242 243 243 244 246 249 253 256 260 263 266 268 271 273 274 275 276 278 279 280 280 278 277 276 277 278 281 284
222 225 226 222 218 218 223 228 232 236 239 241 242 243 244 244 244 245 246 248 251 254 257 259 261 263 265 267 268 269 270 270 270 270 269 267 266 265 264 265 268 271
224 223 224 223 220 218 218 221 224 228 232 235 238 241 242 243 244 244 245 246 249 252 253 254 254 256 259 260 261 261 262 262 261 260 259 258 257 256 257 259 260 263
230 226 224 223 222 220 219 220 222 224 227 230 233 236 239 240 241 241 241 242 245 247 248 248 247 248 251 253 253 253 252 251 251 250 250 249 249 250 251 254 255 257
229 229 227 225 223 221 220 221 223 226 227 228 230 233 236 238 238 238 237 237 239 241 242 242 239 238 241 244 243 242 241 240 241 242 242 242 242 242 242 243 245 246
223 226 227 227 225 222 220 220 222 226 228 228 229 231 234 235 235 236 236 235 235 235 236 237 234 230 232 236 236 235 234 234 235 236 236 235 233 232 230 227 227 227
220 222 224 225 225 223 221 219 220 223 226 227 228 230 232 233 234 235 234 231 231 231 232 233 231 227 229 233 235 233 232 233 233 232 230 228 226 224 222 218 216 213
221 221 222 223 223 223 223 221 220 222 224 225 227 229 231 233 234 235 235 234 233 233 234 234 233 231 233 238 239 238 236 237 237 233 226 224 224 223 224 223 221 217
222 222 222 222 221 223 224 224 223 223 223 222 224 226 230 234 237 239 241 241 240 240 239 239 237 236 240 245 247 247 245 245 244 236 228 224 225 228 231 234 234 234
223 223 222 221 220 222 224 225 226 226 225 224 225 226 228 230 234 238 242 244 245 246 245 243 238 237 241 246 250 252 253 252 249 243 237 233 233 236 240 244 245 246
222 223 223 221 219 219 221 224 228 230 231 230 229 229 230 230 232 235 240 243 246 248 249 246 242 242 244 245 249 253 256 257 255 251 248 245 243 245 249 252 255 256
219 221 222 221 219 216 215 216 220 226 231 235 235 235 234 233 234 236 240 244 247 250 251 250 247 247 248 247 247 251 256 259 259 256 254 251 248 250 253 256 259 264
Height
11018 11018 11020 11020 11020 11021 11022 11022 11022 11023 11024 11024 11024 11024 11024 11024 11024 11023 11023 11023 11023 11023 11022 11022 11022 11022 11022 11022 11022 11021 11020 11020 11020 11019 11018 11018 11018 11017 11016 11016 11016 11015
11016 11018 11018 11020 11020 11020 11021 11022 11022 11022 11024 11024 11024 11024 11024 11024 11024 11024 11024 11024 11024 11024 11024 11024 11024 11024 11024 11023 11023 11022 11022 11021 11020 11020 11020 11020 11018 11018 11018 11018 11016 11016
11016 11016 11018 11018 11019 11020 11020 11020 11021 11022 11023 11024 11024 11024 11024 11024 11024 11024 11024 11024 11024 11024 11024 11024 11024 11024 11024 11024 11024 11024 11022 11022 11022 11021 11020 11020 11020 11020 11019 11018 11018 11018
11014 11016 11016 11017 11018 11018 11018 11020 11020 11021 11022 11023 11024 11024 11024 11024 11024 11024 11024 11024 11024 11024 11024 11024 11024 11024 11024 11024 11024 11024 11024 11023 11022 11022 11022 11021 11021 11020 11020 11020 11019 11018
11012 11014 11014 11015 11016 11017 11018 11018 11019 11020 11021 11022 11023 11024 11024 11024 11024 11024 11024 11024 11024 11024 11025 11024 11024 11024 11024 11024 11024 11024 11024 11024 11023 11022 11022 11022 11022 11021 11021 11020 11020 11019
11010 11012 11012 11014 11014 11016 11016 11017 11018 11018 11020 11021 11022 11023 11024 11024 11024 11024 11024 11024 11024 11025 11025 11025 11024 11024 11024 11024 11024 11024 11024 11024 11024 11023 11023 11022 11022 11022 11021 11021 11020 11020
11008 11010 11010 11012 11013 11014 11015 11016 11016 11018 11018 11020 11020 11022 11022 11023 11024 11024 11024 11024 11025 11025 11025 11025 11024 11024 11024 11024 11024 11024 11024 11024 11024 11024 11023 11022 11022 11022 11022 11021 11020 11020
11007 11008 11008 11010 11011 11012 11013 11014 11015 11016 11018 11018 11020 11020 11021 11022 11022 11023 11024 11024 11024 11024 11024 11024 11024 11024 11024 11024 11024 11024 11024 11024 11024 11024 11023 11022 11022 11022 11022 11021 11020 11020
11005 11006 11006 11008 11009 11010 11011 11012 11013 11014 11016 11017 11018 11018 11020 11020 11021 11022 11022 11023 11024 11024 11024 11024 11024 11024 11024 11024 11024 11024 11024 11024 11024 11024 11023 11022 11022 11022 11022 11021 11020 11020
11002 11004 11004 11006 11006 11008 11010 11010 11012 11012 11014 11015 11016 11017 11018 11019 11020 11020 11021 11022 11022 11022 11023 11023 11023 11023 11023 11023 11023 11023 11023 11023 11023 11022 11022 11022 11022 11022 11021 11020 11020 11019
10999 11000 11002 11003 11004 11006 11008 11009 11010 11011 11012 11014 11014 11016 11016 11018 11018 11019 11020 11020 11020 11021 11022 11022 11022 11022 11022 11022 11022 11022 11022 11022 11022 11022 11022 11021 11021 11021 11020 11020 11020 11019
10994 10996 10998 11000 11002 11004 11006 11007 11008 11010 11010 11012 11012 11014 11014 11015 11016 11017 11018 11018 11019 11019 11020 11020 11020 11020 11021 11021 11022 11022 11022 11021 11021 11020 11020 11020 11020 11020 11020 11019 11018 11018
10989 10991 10994 10997 11000 11002 11003 11004 11006 11007 11008 11010 11010 11012 11012 11012 11014 11015 11016 11016 11016 11017 11018 11018 11018 11019 11020 11020 11020 11020 11020 11020 11020 11020 11020 11019 11019 11018 11018 11018 11018 11017
10985 10988 10990 10992 10995 10998 11000 11001 11002 11004 11006 11007 11008 11009 11010 11010 11012 11012 11014 11014 11014 11014 11015 11016 11016 11017 11018 11018 11018 11019 11019 11019 11019 11019 11019 11018 11018 11018 11017 11016 11016 11016
10982 10984 10986 10988 10990 10993 10994 10996 10999 11001 11003 11004 11006 11006 11008 11008 11010 11010 11011 11012 11012 11012 11013 11014 11014 11014 11016 11016 11016 11017 11017 11017 11018 11018 11018 11018 11017 11016 11016 11016 11014 11014
10980 10981 10984 10985 10987 10988 10990 10992 10994 10997 10999 11001 11002 11004 11005 11006 11008 11008 11009 11010 11010 11010 11011 11011 11012 11013 11014 11014 11014 11015 11015 11016 11016 11016 11016 11016 11016 11015 11014 11014 11014 11013
10977 10978 10980 10982 10984 10985 10986 10988 10990 10993 10995 10997 10999 11000 11002 11004 11005 11006 11006 11008 11008 11008 11008 11009 11010 11011 11012 11012 11012 11013 11013 11014 11014 11014 11014 11014 11014 11014 11013 11012 11012 11012
10974 10976 10978 10979 10981 10982 10984 10986 10988 10990 10992 10993 10995 10997 10999 11000 11002 11003 11004 11005 11006 11006 11006 11007 11008 11010 11010 11010 11010 11011 11012 11012 11012 11012 11012 11012 11012 11012 11012 11011 11011 11010
10970 10972 10974 10976 10978 10980 10982 10984 10985 10986 10988 10990 10992 10994 10996 10998 10999 11000 11002 11003 11004 11004 11004 11006 11006 11008 11008 11008 11008 11010 11010 11010 11010 11010 11010 11010 11010 11010 11010 11010 11010 11009
10966 10968 10971 10973 10975 10978 10980 10981 10982 10984 10985 10987 10990 10992 10994 10995 10996 10998 11000 11002 11002 11003 11004 11004 11004 11006 11006 11006 11007 11008 11008 11008 11009 11009 11009 11009 11008 11008 11008 11008 11008 11008
10962 10964 10967 10970 10972 10974 10976 10978 10980 10981 10983 10985 10988 10990 10991 10993 10995 10997 10998 11000 11000 11002 11002 11003 11004 11004 11006 11006 11006 11006 11007 11008 11008 11008 11008 11008 11008 11007 11007 11006 11006 11006
10958 10960 10963 10966 10968 10971 10974 10976 10978 10980 10982 10984 10986 10988 10990 10992 10994 10995 10997 10998 11000 11000 11002 11002 11003 11004 11005 11005 11006 11006 11006 11006 11006 11007 11007 11007 11006 11006 11006 11006 11005 11005
10953 10956 10960 10963 10966 10968 10971 10974 10977 10980 10982 10984 10986 10988 10990 10991 10993 10994 10996 10997 10998 11000 11000 11002 11004 11004 11004 11005 11006 11006 11006 11006 11006 11006 11006 11006 11006 11005 11005 11004 11004 11004
10948 10952 10955 10960 10964 10966 10970 10973 10977 10980 10983 10985 10986 10988 10990 10990 10992 10994 10994 10996 10997 10998 11000 11001 11002 11004 11004 11004 11005 11004 11004 11004 11005 11006 11006 11005 11005 11004 11004 11004 11004 11003
10942 10946 10950 10956 10960 10964 10968 10974 10978 10982 10984 10985 10986 10988 10988 10990 10991 10992 10993 10994 10996 10997 10998 11000 11001 11002 11002 11004 11004 11004 11003 11004 11004 11004 11004 11004 11004 11004 11004 11003 11002 11002
10936 10940 10946 10950 10955 10960 10966 10971 10976 10980 10983 10985 10987 10988 10988 10988 10989 10990 10991 10992 10994 10996 10997 10998 11000 11001 11001 11002 11002 11002 11002 11002 11002 11003 11004 11004 11004 11002 11002 11002 11002 11001